DW6536 Weather Reports


time (UTC)temp
F
wind
direction
speed
knots
gust
knots
rain 1hr
in
rain 24hr
in
rain mn
in
humidity
%
barometer
mb
20260901081550 80 149 0.9 0.0 0.00 0.00 0.00 77 1013.0
20260901080049 80 154 0.0 0.0 0.00 0.00 0.00 76 1013.2
20260901074547 81 191 0.0 0.0 0.00 0.00 0.00 75 1013.3
20260901073045 81 127 0.0 0.0 0.00 0.00 0.00 73 1013.2
20260901071556 82 199 0.9 0.0 0.00 0.00 0.00 71 1013.2
20260901070042 82 145 0.9 0.0 0.00 0.00 0.00 70 1013.3
20260901064542 82 210 0.9 0.0 0.00 0.00 0.00 70 1013.1
20260901063040 83 162 0.9 0.0 0.00 0.00 0.00 69 1013.0
20260901061536 83 144 0.9 0.0 0.00 0.00 0.00 68 1013.0
20260901060034 83 138 1.7 0.0 0.00 0.00 0.00 69 1013.0
20260901054532 83 209 0.9 0.0 0.00 0.00 0.00 69 1012.8
20260901053029 84 120 0.9 0.0 0.00 0.00 0.00 68 1012.7
20260901051528 84 198 0.9 0.0 0.00 0.00 0.00 66 1012.6
20260901050027 84 135 0.9 0.0 0.00 0.00 0.00 65 1012.5
20260901044525 85 146 1.7 0.0 0.00 0.00 0.00 63 1012.5
20260901043025 85 153 0.9 0.0 0.00 0.00 0.00 63 1012.5
20260901041525 86 168 0.9 0.0 0.00 0.00 0.00 62 1012.3
20260901040024 86 195 1.7 0.0 0.00 0.00 0.00 61 1012.3
20260901034531 87 139 1.7 0.0 0.00 0.00 0.00 59 1012.3
20260901033023 87 178 2.6 0.0 0.00 0.00 0.00 57 1012.2
20260901031523 88 184 2.6 0.0 0.00 0.00 0.00 54 1012.0
20260901030026 88 133 1.7 0.0 0.00 0.00 0.00 53 1011.8
20260901024522 88 138 0.9 0.0 0.00 0.00 0.00 49 1011.6
20260901023031 88 129 0.0 0.0 0.00 0.00 0.00 48 1011.4
20260901021524 88 70 0.0 0.0 0.00 0.00 0.00 47 1011.3
20260901020020 89 139 0.0 0.0 0.00 0.00 0.00 47 1011.0
20260901014519 90 151 0.0 0.0 0.00 0.00 0.00 47 1010.8
20260901013021 91 156 0.0 0.0 0.00 0.00 0.00 45 1010.7
20260901011518 91 156 0.0 0.0 0.00 0.00 0.00 44 1010.6
20260901010018 92 68 0.9 0.0 0.00 0.00 0.00 42 1010.4
20260901004517 93 137 0.9 0.0 0.00 0.00 0.00 42 1010.4
20260901003022 94 241 0.9 0.0 0.00 0.00 0.00 42 1010.5
20260901001522 95 124 0.9 0.0 0.00 0.00 0.00 40 1010.3
20260901000016 96 147 0.9 0.0 0.00 0.00 0.00 39 1010.2
20260831234516 97 126 0.9 0.0 0.00 0.00 0.00 38 1010.3
20260831233016 97 199 0.9 0.0 0.00 0.00 0.00 38 1010.2
20260831231526 96 120 0.9 0.0 0.00 0.00 0.00 38 1010.3
20260831230012 97 245 1.7 0.0 0.00 0.00 0.00 37 1010.4
20260831224511 98 110 1.7 0.0 0.00 0.00 0.00 38 1010.4
20260831223010 99 118 0.9 0.0 0.00 0.00 0.00 37 1010.5
20260831221509 98 108 1.7 0.0 0.00 0.00 0.00 39 1010.5
20260831220009 99 125 0.9 0.0 0.00 0.00 0.00 40 1010.6
20260831214506 98 206 1.7 0.0 0.00 0.00 0.00 41 1010.9
20260831213004 99 25 0.9 0.0 0.00 0.00 0.00 41 1011.1
20260831211505 98 147 1.7 0.0 0.00 0.00 0.00 42 1011.2
20260831204558 97 121 1.7 0.0 0.00 0.00 0.00 44 1011.7
20260831203056 98 130 1.7 0.0 0.00 0.00 0.00 42 1012.0
20260831201553 97 110 2.6 0.0 0.00 0.00 0.00 43 1012.3
20260831200056 97 95 1.7 0.0 0.00 0.00 0.00 43 1012.5
20260831194617 98 201 1.7 0.0 0.00 0.00 0.00 44 1012.7
20260831193050 97 131 1.7 0.0 0.00 0.00 0.00 43 1012.8
20260831191551 98 76 1.7 0.0 0.00 0.00 0.00 44 1013.0
20260831190047 96 66 1.7 0.0 0.00 0.00 0.00 46 1013.3
20260831184546 96 143 1.7 0.0 0.00 0.00 0.00 47 1013.4
20260831183042 96 185 1.7 0.0 0.00 0.00 0.00 47 1013.4
20260831181541 95 207 2.6 0.0 0.00 0.00 0.00 50 1013.6
20260831180040 94 189 2.6 0.0 0.00 0.00 0.00 51 1013.8
20260831174537 94 195 2.6 0.0 0.00 0.00 0.00 51 1014.1
20260831173034 93 87 1.7 0.0 0.00 0.00 0.00 54 1014.2
20260831171534 93 78 1.7 0.0 0.00 0.00 0.00 55 1014.4
20260831170032 93 122 1.7 0.0 0.00 0.00 0.00 55 1014.5
20260831164529 92 226 0.9 0.0 0.00 0.00 0.00 58 1014.5
20260831163030 91 144 1.7 0.0 0.00 0.00 0.00 58 1014.5
20260831161530 90 175 1.7 0.0 0.00 0.00 0.00 61 1014.5
20260831160021 89 286 1.7 0.0 0.00 0.00 0.00 64 1014.5
20260831154519 88 124 1.7 0.0 0.00 0.00 0.00 64 1014.6
20260831153015 86 112 2.6 0.0 0.00 0.00 0.00 69 1014.5
20260831151516 87 165 1.7 0.0 0.00 0.00 0.00 69 1014.4
20260831150013 85 225 0.9 0.0 0.00 0.00 0.00 73 1014.3
20260831144508 84 122 1.7 0.0 0.00 0.00 0.00 74 1014.2
20260831143007 83 267 0.9 0.0 0.00 0.00 0.00 77 1014.0
20260831141506 81 199 1.7 0.0 0.00 0.00 0.00 80 1014.2
20260831140005 80 175 1.7 0.0 0.00 0.00 0.00 82 1013.9
20260831134504 79 154 0.9 0.0 0.00 0.00 0.00 85 1013.8
20260831133005 78 185 0.9 0.0 0.00 0.00 0.00 87 1013.6
20260831131503 78 165 0.0 0.0 0.00 0.00 0.00 88 1013.7
20260831130001 77 229 0.0 0.0 0.00 0.00 0.00 88 1013.4
20260831124558 77 126 0.0 0.0 0.00 0.00 0.00 88 1013.3
20260831123100 77 192 0.0 0.0 0.00 0.00 0.00 88 1013.1
20260831121603 77 114 0.9 0.0 0.00 0.00 0.00 87 1013.1
20260831120057 77 191 0.9 0.0 0.00 0.00 0.00 87 1013.1
20260831114555 77 240 0.9 0.0 0.00 0.00 0.00 87 1013.1
20260831113056 77 99 0.9 0.0 0.00 0.00 0.00 86 1013.0
20260831111553 78 108 0.0 0.0 0.00 0.00 0.00 86 1013.0
20260831110051 78 180 0.9 0.0 0.00 0.00 0.00 85 1012.8
20260831104550 78 200 0.9 0.0 0.00 0.00 0.00 85 1012.9
20260831103049 78 180 0.9 0.0 0.00 0.00 0.00 85 1012.9
20260831101550 78 293 0.9 0.0 0.00 0.00 0.00 85 1012.9
20260831100048 78 118 0.9 0.0 0.00 0.00 0.00 85 1013.0
20260831094547 78 227 0.0 0.0 0.00 0.00 0.00 84 1013.0
20260831093047 78 179 0.9 0.0 0.00 0.00 0.00 84 1012.9
20260831091556 78 217 0.0 0.0 0.00 0.00 0.00 84 1012.8
20260831090046 78 156 0.9 0.0 0.00 0.00 0.00 84 1012.8
20260831084544 78 207 0.9 0.0 0.00 0.00 0.00 84 1012.9
20260831083044 79 155 0.9 0.0 0.00 0.00 0.00 83 1012.9